Weather History for Spirit of St Louis, MO

Change the Weather History Date:

Thursday, December 6, 2012

  Actual Average Record
Temperature  
Mean Temperature 44 °F -  
Max Temperature 55 °F 46 °F 72 °F (1998)
Min Temperature 32 °F 28 °F 14 °F (2002)
Degree Days  
Heating Degree Days 22    
Moisture  
Dew Point 36 °F    
Average Humidity 75    
Maximum Humidity 89    
Minimum Humidity 51    
Precipitation  
Precipitation 0.00 in - - ()
Sea Level Pressure  
Sea Level Pressure 30.02 in    
Wind  
Wind Speed 2 mph (ESE)    
Max Wind Speed 6 mph    
Max Gust Speed -    
Visibility 10 miles    
Events      
Averages and records for this station are not official NWS values.
T = Trace of Precipitation, MM = Missing Value Source: NWS Daily Summary

Daily Weather History Graph

Daily Weather History Graph

Search for Another Location

Airport:

Trip Planner

Search our weather history database for the weather conditions in past years. The results will help you decide how hot, cold, wet, or windy it might be!

Date:

Astronomy

Dec. 06, 2012 Rise Set
Actual Time 7:06 AM CST 4:41 PM CST
Civil Twilight 6:37 AM CST 5:10 PM CST
Nautical Twilight 6:03 AM CST 5:43 PM CST
Astronomical Twilight 5:31 AM CST 6:15 PM CST
Moon No Moon Rise 12:03 PM CST (12/6)
Length of Visible Light 10h 33m
Length of Day
9h 34m
Waning Gibbous, 49% of the Moon is Illuminated
Dec 6
Waning Gibbous
Dec 13
New
Dec 19
First Quarter
Dec 28
Full
Jan 4
Last Quarter

Hourly Weather History & Observations

Time (CST) Temp. Windchill Dew Point Humidity Pressure Visibility Wind Dir Wind Speed Gust Speed Precip Events Conditions
12:54 AM 39.0 °F 35.7 °F 33.1 °F 79% 30.14 in 10.0 mi East 4.6 mph - N/A   Clear
1:54 AM 36.0 °F - 32.0 °F 86% 30.14 in 10.0 mi Calm Calm - N/A   Clear
2:54 AM 35.1 °F - 32.0 °F 89% 30.12 in 10.0 mi Calm Calm - N/A   Clear
3:54 AM 32.0 °F - 28.9 °F 88% 30.11 in 10.0 mi Calm Calm - N/A   Clear
4:54 AM 35.1 °F 31.0 °F 30.9 °F 85% 30.09 in 10.0 mi East 4.6 mph - N/A   Clear
5:54 AM 37.9 °F 35.5 °F 32.0 °F 79% 30.09 in 10.0 mi East 3.5 mph - N/A   Mostly Cloudy
6:54 AM 34.0 °F - 30.9 °F 89% 30.11 in 10.0 mi Calm Calm - N/A   Mostly Cloudy
7:54 AM 39.9 °F 37.8 °F 35.1 °F 83% 30.09 in 10.0 mi East 3.5 mph - N/A   Overcast
8:54 AM 43.0 °F 40.3 °F 35.1 °F 74% 30.07 in 10.0 mi ESE 4.6 mph - N/A   Overcast
9:54 AM 46.0 °F - 36.0 °F 68% 30.07 in 10.0 mi Calm Calm - N/A   Mostly Cloudy
10:54 AM 48.0 °F - 37.0 °F 66% 30.04 in 10.0 mi ESE 3.5 mph - N/A   Overcast
11:54 AM 52.0 °F - 37.0 °F 57% 30.00 in 10.0 mi Variable 3.5 mph - N/A   Overcast
12:54 PM 55.0 °F - 37.0 °F 51% 29.97 in 10.0 mi SE 4.6 mph - N/A   Overcast
1:54 PM 55.0 °F - 41.0 °F 59% 29.95 in 10.0 mi NE 5.8 mph - N/A   Overcast
2:54 PM 55.0 °F - 39.9 °F 57% 29.95 in 10.0 mi Calm Calm - N/A   Overcast
3:54 PM 53.1 °F - 39.0 °F 59% 29.95 in 10.0 mi SE 5.8 mph - N/A   Clear
4:54 PM 52.0 °F - 39.0 °F 61% 29.94 in 10.0 mi Calm Calm - N/A   Overcast
5:54 PM 50.0 °F - 39.9 °F 68% 29.93 in 10.0 mi East 4.6 mph - N/A   Mostly Cloudy
6:54 PM 48.0 °F - 41.0 °F 77% 29.95 in 10.0 mi East 3.5 mph - N/A   Overcast
7:54 PM 48.0 °F - 41.0 °F 77% 29.96 in 10.0 mi Calm Calm - N/A   Partly Cloudy
8:54 PM 45.0 °F - 39.9 °F 82% 29.95 in 10.0 mi Calm Calm - N/A   Clear
9:54 PM 41.0 °F - 37.9 °F 89% 29.95 in 10.0 mi Calm Calm - N/A   Mostly Cloudy
10:54 PM 42.1 °F - 39.0 °F 89% 29.94 in 10.0 mi Calm Calm - N/A   Overcast
11:54 PM 42.1 °F - 39.0 °F 89% 29.93 in 10.0 mi Calm Calm - N/A   Clear